Location: Mentone
(34.5413°N, 85.5351°W)
Time: 02:40:54
(UTC-05:00)

Centaur AC-72 - Visible Passes

Search period start: 26 October 2014 00:00
Search period end: 04 November 2014 23:00
Orbit: 1125 x 35231 km, 19.1° (Epoch: 25 October)

Date Brightness Start Highest point End Pass type
(mag) Time Alt. Az. Time Alt. Az. Time Alt. Az.
26 Oct 9.3 22:21:41 10° W 23:51:30 25° W 02:59:22 10° W visible
27 Oct 7.2 19:02:09 10° WSW 20:57:30 61° SW 04:37:26 10° SSW visible
28 Oct 7.5 16:05:13 10° SW 21:03:35 65° SSE 01:52:49 10° SSE visible
29 Oct 7.2 13:15:29 10° SSW 20:30:17 42° ESE 22:49:34 10° SE visible
30 Oct 9.4 22:04:06 10° W 23:34:44 26° W 02:48:30 10° W visible
31 Oct 7.2 18:46:01 10° W 20:39:52 62° SW 04:21:32 10° SSW visible
01 Nov 7.6 15:49:21 10° SW 20:51:50 64° SSE 01:36:40 10° SSE visible
02 Nov 7.1 11:59:40 10° SSW 19:14:23 41° ESE 21:32:41 10° SE visible
03 Nov 9.4 20:46:39 10° W 22:17:57 27° W 01:37:20 10° W visible
04 Nov 9.4 17:29:54 10° W 19:22:07 62° SW 23:00:00 44° WSW visible
